Location: Mauries
(43.6188°N, 0.3322°W)
Time: 12:12:56
(UTC+00:00)

Envisat - Pass Details

Date: 13 March 2026
Orbit: 761 x 762 km, 98.4° (Epoch: 14 April)

Event Time Altitude Azimuth Distance (km) Brightness Sun altitude
Rises 02:21:20 0° 17° (NNE) 3,234 6.9 -40.1°
Reaches altitude 10° 02:23:42 10° 22° (NNE) 2,303 6.1 -39.8°
Enters shadow 02:25:05 18° 28° (NNE) 1,788 5.4 -39.7°
